Darstellungsparameter: Aktuell verwendete Einstellungen:
Skalierung der Graphiken ... ?
xyx+y,   Skalierungsfaktor:      Skalierung: Modus: x, Faktor: 1
Darstellungszeitraum ... ?
Vom - - bis: - -   Zeitraum: 11.11.2009 - 12.11.2009
Min/Max/Avg-Anzeige ... ?
Zeige MMA aktuell
Zeige MMA Monat
Zeige MMA alles
Zeige --A aktuell
Zeige --A Monat
Zeige --A alles
Keine MMA-Anzeige
MMA:
Minimum Maximum Average (ber die Originaldaten)
MMA-Basis: 14.04.2020 - 16.05.2020
Quicknavigation für Darstellung... ?
Tage:      1T, 2T, 3T, 5T -1T -2T -3T -5T +1T +2T +3T +5T
Wochen: 1W, 2W, 3W -1W -2W -3W +1W +2W +3W
Monate: 1M, 3M, 6M -1M -3M -6M +1M +3M +6M
Jahre:    1J, 3J, 5J, 10J -1J -3J -5J -10J +1J +3J +5J +10J
Nutze für die Darstellung ... ?
Originaldaten oder Mittelwerte auf ...
Stundenbasis Tagesbasis Wochenbasis
Monatsbasis Jahresbasis      Datenbasis: Original-Daten
Darstellen als:
Statistik (Auto) Statistik J:M      Darstellung:
Zur Graphik,    zurück zur Übersicht aller Sensoren.
 
Tabellarische Datenbersicht: ?
 
Sensor: Nr:Datum:Temp:Abs-Feuchte:Windchill:Wind:
Aussen-T/F 1 11-11-2009 00:05:02 6.5 C 7.12 g/m*3 6.5 C 0 km/h
2 11-11-2009 00:17:02 6.5 C 7.12 g/m*3 6.5 C 0 km/h
3 11-11-2009 00:29:03 6.5 C 7.12 g/m*3 6.5 C 0 km/h
4 11-11-2009 00:41:03 6.4 C 7.08 g/m*3 6.4 C 0 km/h
5 11-11-2009 00:53:03 6.3 C 7.03 g/m*3 6.3 C 0 km/h
6 11-11-2009 01:05:03 6.3 C 7.03 g/m*3 6.3 C 0 km/h
7 11-11-2009 01:17:03 6.3 C 7.03 g/m*3 6.3 C 0 km/h
8 11-11-2009 01:29:03 6.2 C 6.99 g/m*3 6.2 C 0 km/h
9 11-11-2009 01:41:03 6.2 C 6.99 g/m*3 6.2 C 0 km/h
10 11-11-2009 01:53:03 6.2 C 6.99 g/m*3 6.2 C 0 km/h
11 11-11-2009 02:05:03 5.9 C 6.85 g/m*3 5.9 C 0 km/h
12 11-11-2009 02:17:03 5.4 C 6.63 g/m*3 5.4 C 0 km/h
13 11-11-2009 02:29:03 5.2 C 6.54 g/m*3 5.2 C 0 km/h
14 11-11-2009 02:41:03 5 C 6.46 g/m*3 5 C 0 km/h
15 11-11-2009 02:53:03 5.1 C 6.5 g/m*3 5.1 C 0 km/h
16 11-11-2009 03:05:03 5.2 C 6.54 g/m*3 5.2 C 0 km/h
17 11-11-2009 03:17:03 5.4 C 6.63 g/m*3 5.4 C 0 km/h
18 11-11-2009 03:29:03 5.4 C 6.63 g/m*3 5.4 C 0 km/h
19 11-11-2009 03:41:03 5.4 C 6.63 g/m*3 5.4 C 0 km/h
20 11-11-2009 03:53:03 5.4 C 6.63 g/m*3 5.4 C 0 km/h
21 11-11-2009 04:05:03 5.4 C 6.63 g/m*3 5.4 C 0 km/h
22 11-11-2009 04:17:04 5.4 C 6.63 g/m*3 5.4 C 0 km/h
23 11-11-2009 04:29:04 5.4 C 6.63 g/m*3 5.4 C 0 km/h
24 11-11-2009 04:41:04 5.4 C 6.63 g/m*3 5.4 C 0 km/h
25 11-11-2009 04:53:04 5.4 C 6.56 g/m*3 5.4 C 0 km/h
Sensor: Nr:Datum:Temp:Abs-Feuchte:Windchill:Wind:
Aussen-T/F 26 11-11-2009 05:05:04 5.4 C 6.49 g/m*3 5.4 C 0 km/h
27 11-11-2009 05:17:04 5.5 C 6.39 g/m*3 5.5 C 0 km/h
28 11-11-2009 05:29:04 5.5 C 6.32 g/m*3 5.5 C 0 km/h
29 11-11-2009 05:41:04 5.5 C 6.25 g/m*3 5.5 C 0 km/h
30 11-11-2009 05:53:04 5.6 C 6.15 g/m*3 5.6 C 0 km/h
31 11-11-2009 06:05:04 5.5 C 6.04 g/m*3 5.5 C 0 km/h
32 11-11-2009 06:17:04 5.6 C 6.01 g/m*3 5.6 C 0 km/h
33 11-11-2009 06:29:04 5.6 C 6.01 g/m*3 5.6 C 0 km/h
34 11-11-2009 06:41:04 5.7 C 6.05 g/m*3 5.7 C 0 km/h
35 11-11-2009 06:53:04 5.7 C 5.98 g/m*3 5.7 C 0 km/h
36 11-11-2009 07:05:02 5.7 C 5.98 g/m*3 5.7 C 0 km/h
37 11-11-2009 07:17:02 5.7 C 5.91 g/m*3 5.7 C 0 km/h
38 11-11-2009 07:29:02 5.7 C 5.91 g/m*3 5.7 C 0 km/h
39 11-11-2009 07:41:02 5.7 C 5.84 g/m*3 5.7 C 0 km/h
40 11-11-2009 07:53:02 5.7 C 5.84 g/m*3 5.7 C 0 km/h
41 11-11-2009 08:05:02 5.7 C 5.84 g/m*3 5.7 C 0 km/h
42 11-11-2009 08:17:02 5.7 C 5.84 g/m*3 5.7 C 0 km/h
43 11-11-2009 08:29:02 5.7 C 5.84 g/m*3 5.7 C 0 km/h
44 11-11-2009 08:41:02 5.7 C 5.84 g/m*3 5.7 C 0 km/h
45 11-11-2009 08:53:02 5.7 C 5.84 g/m*3 5.7 C 0 km/h
46 11-11-2009 09:05:02 5.8 C 5.87 g/m*3 5.8 C 0 km/h
47 11-11-2009 09:17:03 5.9 C 5.84 g/m*3 5.9 C 0 km/h
48 11-11-2009 09:29:03 6 C 5.81 g/m*3 6 C 0 km/h
49 11-11-2009 09:41:02 6 C 5.88 g/m*3 6 C 0 km/h
50 11-11-2009 09:53:02 6.1 C 5.92 g/m*3 6.1 C 0 km/h
Sensor: Nr:Datum:Temp:Abs-Feuchte:Windchill:Wind:
Aussen-T/F 51 11-11-2009 10:05:02 6.2 C 6.03 g/m*3 6.2 C 0 km/h
52 11-11-2009 10:17:03 6.3 C 6.07 g/m*3 6.3 C 0 km/h
53 11-11-2009 10:29:03 6.5 C 6.22 g/m*3 6.5 C 0 km/h
54 11-11-2009 10:41:02 6.5 C 6.22 g/m*3 6.5 C 0 km/h
55 11-11-2009 10:53:03 6.7 C 6.31 g/m*3 6.7 C 0 km/h
56 11-11-2009 11:05:02 6.6 C 6.27 g/m*3 6.6 C 0 km/h
57 11-11-2009 11:17:02 6.7 C 6.23 g/m*3 6.7 C 0 km/h
58 11-11-2009 11:29:02 7.1 C 6.32 g/m*3 7.1 C 0 km/h
59 11-11-2009 11:41:02 7.4 C 6.28 g/m*3 7.4 C 0 km/h
60 11-11-2009 11:53:02 7.5 C 6.16 g/m*3 7.5 C 0 km/h
61 11-11-2009 12:05:02 7.3 C 6 g/m*3 7.3 C 0 km/h
62 11-11-2009 12:17:02 7.3 C 6.16 g/m*3 7.3 C 0 km/h
63 11-11-2009 12:29:03 7.2 C 6.12 g/m*3 7.2 C 0 km/h
64 11-11-2009 12:41:02 7.3 C 6.16 g/m*3 7.3 C 0 km/h
65 11-11-2009 12:53:02 7.2 C 6.12 g/m*3 7.2 C 0 km/h
66 11-11-2009 13:05:01 7.4 C 6.28 g/m*3 7.4 C 0 km/h
67 11-11-2009 13:17:02 7.3 C 6.24 g/m*3 7.3 C 0 km/h
68 11-11-2009 13:29:02 7.5 C 6.24 g/m*3 7.5 C 0 km/h
69 11-11-2009 13:41:01 7.6 C 6.28 g/m*3 7.6 C 0 km/h
70 11-11-2009 13:53:02 7.6 C 6.2 g/m*3 7.6 C 0 km/h
71 11-11-2009 14:05:01 7.8 C 6.28 g/m*3 7.8 C 0 km/h
72 11-11-2009 14:17:01 7.7 C 6.16 g/m*3 7.7 C 0 km/h
73 11-11-2009 14:29:01 7.7 C 6.16 g/m*3 7.7 C 0 km/h
74 11-11-2009 14:41:02 7.7 C 6.16 g/m*3 7.7 C 0 km/h
75 11-11-2009 14:53:02 7.8 C 6.2 g/m*3 7.8 C 0 km/h
Sensor: Nr:Datum:Temp:Abs-Feuchte:Windchill:Wind:
Aussen-T/F 76 11-11-2009 15:05:02 7.7 C 6.16 g/m*3 7.7 C 0 km/h
77 11-11-2009 15:17:02 7.7 C 6.16 g/m*3 7.7 C 0 km/h
78 11-11-2009 15:29:02 7.6 C 6.2 g/m*3 7.6 C 0 km/h
79 11-11-2009 15:41:02 7.6 C 6.2 g/m*3 7.6 C 0 km/h
80 11-11-2009 15:53:01 7.7 C 6.24 g/m*3 7.7 C 0 km/h
81 11-11-2009 16:05:02 7.4 C 6.12 g/m*3 7.4 C 0 km/h
82 11-11-2009 16:17:01 7.1 C 6.08 g/m*3 7.1 C 0 km/h
83 11-11-2009 16:29:01 6.9 C 6.16 g/m*3 6.9 C 0 km/h
84 11-11-2009 16:41:02 6.8 C 6.19 g/m*3 6.8 C 0 km/h
85 11-11-2009 16:53:02 6.7 C 6.15 g/m*3 6.7 C 0 km/h
86 11-11-2009 17:05:02 6.7 C 6.23 g/m*3 6.7 C 0 km/h
87 11-11-2009 17:17:01 6.5 C 6.15 g/m*3 6.5 C 0 km/h
88 11-11-2009 17:29:01 6.5 C 6.15 g/m*3 6.5 C 0 km/h
89 11-11-2009 17:41:02 6.3 C 6.07 g/m*3 6.3 C 0 km/h
90 11-11-2009 17:53:02 6.4 C 6.11 g/m*3 6.4 C 0 km/h
91 11-11-2009 18:05:02 6.4 C 6.11 g/m*3 6.4 C 0 km/h
92 11-11-2009 18:17:01 6.6 C 6.19 g/m*3 6.6 C 0 km/h
93 11-11-2009 18:29:01 6.6 C 6.11 g/m*3 6.6 C 0 km/h
94 11-11-2009 18:41:02 6.6 C 6.11 g/m*3 6.6 C 0 km/h
95 11-11-2009 18:53:02 6.6 C 6.11 g/m*3 6.6 C 0 km/h
96 11-11-2009 19:05:02 6.6 C 6.04 g/m*3 6.6 C 0 km/h
97 11-11-2009 19:17:02 6.6 C 6.11 g/m*3 6.6 C 0 km/h
98 11-11-2009 19:29:02 6.6 C 6.11 g/m*3 6.6 C 0 km/h
99 11-11-2009 19:41:02 6.6 C 6.11 g/m*3 6.6 C 0 km/h
100 11-11-2009 19:53:02 6.4 C 6.04 g/m*3 6.4 C 0 km/h
Sensor: Nr:Datum:Temp:Abs-Feuchte:Windchill:Wind:
Aussen-T/F 101 11-11-2009 20:05:02 6.4 C 5.96 g/m*3 6.4 C 0 km/h
102 11-11-2009 20:17:02 6.4 C 5.89 g/m*3 6.4 C 0 km/h
103 11-11-2009 20:29:02 6.4 C 5.89 g/m*3 6.4 C 0 km/h
104 11-11-2009 20:41:02 6.4 C 5.89 g/m*3 6.4 C 0 km/h
105 11-11-2009 20:53:02 6.3 C 5.85 g/m*3 6.3 C 0 km/h
106 11-11-2009 21:05:02 6.3 C 5.77 g/m*3 6.3 C 0 km/h
107 11-11-2009 21:17:02 6.3 C 5.77 g/m*3 6.3 C 0 km/h
108 11-11-2009 21:29:02 6.3 C 5.77 g/m*3 6.3 C 0 km/h
109 11-11-2009 21:41:02 6.3 C 5.7 g/m*3 6.3 C 0 km/h
110 11-11-2009 21:53:01 6.2 C 5.66 g/m*3 6.2 C 0 km/h
111 11-11-2009 22:05:01 6.2 C 5.66 g/m*3 6.2 C 0 km/h
112 11-11-2009 22:18:03 6.2 C 5.66 g/m*3 6.2 C 0 km/h
113 11-11-2009 22:30:03 6 C 5.66 g/m*3 6 C 0 km/h
114 11-11-2009 22:42:03 5.7 C 5.62 g/m*3 5.7 C 0 km/h
115 11-11-2009 22:54:03 5.2 C 5.44 g/m*3 5.2 C 0 km/h
116 11-11-2009 23:06:03 4.8 C 5.5 g/m*3 4.8 C 0 km/h
117 11-11-2009 23:18:03 4.4 C 5.42 g/m*3 4.4 C 0 km/h
118 11-11-2009 23:30:03 4 C 5.34 g/m*3 4 C 0 km/h
119 11-11-2009 23:42:03 3.7 C 5.3 g/m*3 3.7 C 0 km/h
120 11-11-2009 23:54:03 3.5 C 5.29 g/m*3 3.5 C 0 km/h
121 12-11-2009 00:06:03 3.3 C 5.28 g/m*3 3.3 C 0 km/h
122 12-11-2009 00:18:03 3.1 C 5.21 g/m*3 3.1 C 0 km/h
123 12-11-2009 00:30:03 2.8 C 5.16 g/m*3 2.8 C 0 km/h
124 12-11-2009 00:42:03 2.6 C 5.15 g/m*3 2.6 C 0 km/h
125 12-11-2009 00:54:03 2.4 C 5.08 g/m*3 2.4 C 0 km/h
Sensor: Nr:Datum:Temp:Abs-Feuchte:Windchill:Wind:
Aussen-T/F 126 12-11-2009 01:06:03 2.1 C 4.98 g/m*3 2.1 C 0 km/h
127 12-11-2009 01:18:03 2 C 4.95 g/m*3 2 C 0 km/h
128 12-11-2009 01:30:03 1.8 C 4.93 g/m*3 1.8 C 0 km/h
129 12-11-2009 01:42:03 1.7 C 4.9 g/m*3 1.7 C 0 km/h
130 12-11-2009 01:54:03 1.7 C 4.9 g/m*3 1.7 C 0 km/h
131 12-11-2009 02:06:04 1.4 C 4.85 g/m*3 1.4 C 0 km/h
132 12-11-2009 02:18:04 1.3 C 4.82 g/m*3 1.3 C 0 km/h
133 12-11-2009 02:30:04 1.2 C 4.79 g/m*3 1.2 C 0 km/h
134 12-11-2009 02:42:04 1.2 C 4.79 g/m*3 1.2 C 0 km/h
135 12-11-2009 02:54:04 1.1 C 4.76 g/m*3 1.1 C 0 km/h
136 12-11-2009 03:06:04 1 C 4.72 g/m*3 1 C 0 km/h
137 12-11-2009 03:18:04 0.9 C 4.74 g/m*3 0.9 C 0 km/h
138 12-11-2009 03:30:04 0.8 C 4.71 g/m*3 0.8 C 0 km/h
139 12-11-2009 03:42:04 0.8 C 4.71 g/m*3 0.8 C 0 km/h
140 12-11-2009 03:54:04 1 C 4.78 g/m*3 1 C 0 km/h
141 12-11-2009 04:06:04 0.8 C 4.76 g/m*3 0.8 C 0 km/h
142 12-11-2009 04:18:04 0.6 C 4.7 g/m*3 0.6 C 0 km/h
143 12-11-2009 04:30:04 0.5 C 4.66 g/m*3 0.5 C 0 km/h
144 12-11-2009 04:42:04 0.4 C 4.63 g/m*3 0.4 C 0 km/h
145 12-11-2009 04:54:04 0.3 C 4.6 g/m*3 0.3 C 0 km/h
146 12-11-2009 05:06:04 0.2 C 4.57 g/m*3 0.2 C 0 km/h
147 12-11-2009 05:18:04 0.2 C 4.62 g/m*3 0.2 C 0 km/h
148 12-11-2009 05:30:04 0.4 C 4.68 g/m*3 0.4 C 0 km/h
149 12-11-2009 05:42:04 0.6 C 4.75 g/m*3 0.6 C 0 km/h
150 12-11-2009 05:54:05 0.7 C 4.83 g/m*3 0.7 C 0 km/h
Sensor: Nr:Datum:Temp:Abs-Feuchte:Windchill:Wind:
Aussen-T/F 151 12-11-2009 06:06:05 0.9 C 4.9 g/m*3 0.9 C 0 km/h
152 12-11-2009 06:18:03 1 C 4.93 g/m*3 1 C 0 km/h
153 12-11-2009 06:30:03 1.1 C 4.96 g/m*3 1.1 C 0 km/h
154 12-11-2009 06:42:03 1.1 C 4.96 g/m*3 1.1 C 0 km/h
155 12-11-2009 06:54:01 1.2 C 5 g/m*3 1.2 C 0 km/h
156 12-11-2009 07:06:02 1.3 C 5.03 g/m*3 1.3 C 0 km/h
157 12-11-2009 07:18:01 1.4 C 5.07 g/m*3 1.4 C 0 km/h
158 12-11-2009 07:30:01 1.4 C 5.07 g/m*3 1.4 C 0 km/h
159 12-11-2009 07:42:01 1.4 C 5.07 g/m*3 1.4 C 0 km/h
160 12-11-2009 07:54:01 1.7 C 5.17 g/m*3 1.7 C 0 km/h
161 12-11-2009 08:06:02 1.7 C 5.17 g/m*3 1.7 C 0 km/h
162 12-11-2009 08:18:01 1.9 C 5.24 g/m*3 1.9 C 0 km/h
163 12-11-2009 08:30:01 2.2 C 5.35 g/m*3 2.2 C 0 km/h
164 12-11-2009 08:42:02 2.3 C 5.39 g/m*3 2.3 C 0 km/h
165 12-11-2009 08:54:01 2.7 C 5.54 g/m*3 2.7 C 0 km/h
166 12-11-2009 09:06:02 3.1 C 5.69 g/m*3 3.1 C 0 km/h
167 12-11-2009 09:18:01 3.3 C 5.76 g/m*3 3.3 C 0 km/h
168 12-11-2009 09:30:01 3.5 C 5.84 g/m*3 3.5 C 0 km/h
169 12-11-2009 09:42:02 3.7 C 5.92 g/m*3 3.7 C 0 km/h
170 12-11-2009 09:54:01 3.7 C 5.92 g/m*3 3.7 C 0 km/h
171 12-11-2009 10:06:01 3.5 C 5.84 g/m*3 3.5 C 0 km/h
172 12-11-2009 10:18:02 3.5 C 5.84 g/m*3 3.5 C 0 km/h
173 12-11-2009 10:30:02 3.5 C 5.84 g/m*3 3.5 C 0 km/h
174 12-11-2009 10:42:01 3.7 C 5.92 g/m*3 3.7 C 0 km/h
175 12-11-2009 10:54:02 4 C 6.04 g/m*3 4 C 0 km/h
Sensor: Nr:Datum:Temp:Abs-Feuchte:Windchill:Wind:
Aussen-T/F 176 12-11-2009 11:06:02 4.2 C 6.12 g/m*3 4.2 C 0 km/h
177 12-11-2009 11:18:02 4.4 C 6.2 g/m*3 4.4 C 0 km/h
178 12-11-2009 11:30:02 4.6 C 6.29 g/m*3 4.6 C 0 km/h
179 12-11-2009 11:42:02 4.8 C 6.37 g/m*3 4.8 C 0 km/h
180 12-11-2009 11:54:02 5.1 C 6.5 g/m*3 5.1 C 0 km/h
181 12-11-2009 12:06:02 5.3 C 6.58 g/m*3 5.3 C 0 km/h
182 12-11-2009 12:18:01 5.5 C 6.6 g/m*3 5.5 C 0 km/h
183 12-11-2009 12:30:01 5.6 C 6.65 g/m*3 5.6 C 0 km/h
184 12-11-2009 12:42:02 5.7 C 6.62 g/m*3 5.7 C 0 km/h
185 12-11-2009 12:54:02 5.6 C 6.5 g/m*3 5.6 C 0 km/h
186 12-11-2009 13:06:02 5.7 C 6.55 g/m*3 5.7 C 0 km/h
187 12-11-2009 13:18:02 5.8 C 6.59 g/m*3 5.8 C 0 km/h
188 12-11-2009 13:30:02 5.9 C 6.56 g/m*3 5.9 C 0 km/h
189 12-11-2009 13:42:02 6.3 C 6.66 g/m*3 6.3 C 0 km/h
190 12-11-2009 13:54:02 6.6 C 6.72 g/m*3 6.6 C 0 km/h
191 12-11-2009 14:06:02 6.6 C 6.64 g/m*3 6.6 C 0 km/h
192 12-11-2009 14:18:02 6.8 C 6.73 g/m*3 6.8 C 0 km/h
193 12-11-2009 14:30:02 7 C 6.74 g/m*3 7 C 0 km/h
194 12-11-2009 14:42:02 7.3 C 6.79 g/m*3 7.3 C 0 km/h
195 12-11-2009 14:54:02 7.5 C 6.8 g/m*3 7.5 C 0 km/h
196 12-11-2009 15:06:02 7.4 C 6.76 g/m*3 7.4 C 0 km/h
197 12-11-2009 15:18:02 7.3 C 6.72 g/m*3 7.3 C 0 km/h
198 12-11-2009 15:30:02 7.3 C 6.79 g/m*3 7.3 C 0 km/h
199 12-11-2009 15:42:02 7.4 C 6.84 g/m*3 7.4 C 0 km/h
200 12-11-2009 15:54:02 7.4 C 6.92 g/m*3 7.4 C 0 km/h
Sensor: Nr:Datum:Temp:Abs-Feuchte:Windchill:Wind:
Aussen-T/F 201 12-11-2009 16:06:02 7.5 C 6.96 g/m*3 7.5 C 0 km/h
202 12-11-2009 16:18:03 7.5 C 6.96 g/m*3 7.5 C 0 km/h
203 12-11-2009 16:30:03 7.5 C 6.96 g/m*3 7.5 C 0 km/h
204 12-11-2009 16:42:02 7.5 C 6.96 g/m*3 7.5 C 0 km/h
205 12-11-2009 16:54:02 7.6 C 7.01 g/m*3 7.6 C 0 km/h
206 12-11-2009 17:06:02 7.7 C 7.05 g/m*3 7.7 C 0 km/h
207 12-11-2009 17:18:02 7.7 C 7.14 g/m*3 7.7 C 0 km/h
208 12-11-2009 17:30:02 7.7 C 7.14 g/m*3 7.7 C 0 km/h
209 12-11-2009 17:42:02 7.8 C 7.18 g/m*3 7.8 C 0 km/h
210 12-11-2009 17:54:02 7.9 C 7.23 g/m*3 7.9 C 0 km/h
211 12-11-2009 18:06:02 8 C 7.19 g/m*3 8 C 0 km/h
212 12-11-2009 18:18:02 8.2 C 7.29 g/m*3 8.2 C 0 km/h
213 12-11-2009 18:30:02 8.1 C 7.16 g/m*3 8.1 C 0 km/h
214 12-11-2009 18:42:02 8 C 7.11 g/m*3 8 C 0 km/h
215 12-11-2009 18:54:02 7.9 C 7.23 g/m*3 7.9 C 0 km/h
216 12-11-2009 19:06:02 7.9 C 7.23 g/m*3 7.9 C 0 km/h
217 12-11-2009 19:18:02 7.9 C 7.31 g/m*3 7.9 C 0 km/h
218 12-11-2009 19:30:03 7.9 C 7.31 g/m*3 7.9 C 0 km/h
219 12-11-2009 19:42:02 7.8 C 7.26 g/m*3 7.8 C 0 km/h
220 12-11-2009 19:54:02 7.8 C 7.26 g/m*3 7.8 C 0 km/h
221 12-11-2009 20:06:01 7.8 C 7.35 g/m*3 7.8 C 0 km/h
222 12-11-2009 20:18:02 7.8 C 7.35 g/m*3 7.8 C 0 km/h
223 12-11-2009 20:30:02 7.8 C 7.35 g/m*3 7.8 C 0 km/h
224 12-11-2009 20:42:02 7.6 C 7.33 g/m*3 7.6 C 0 km/h
225 12-11-2009 20:54:01 7.6 C 7.33 g/m*3 7.6 C 0 km/h
Sensor: Nr:Datum:Temp:Abs-Feuchte:Windchill:Wind:
Aussen-T/F 226 12-11-2009 21:06:02 7.5 C 7.28 g/m*3 7.5 C 0 km/h
227 12-11-2009 21:18:01 7.3 C 7.27 g/m*3 7.3 C 0 km/h
228 12-11-2009 21:30:01 7.1 C 7.18 g/m*3 7.1 C 0 km/h
229 12-11-2009 21:42:01 7 C 7.13 g/m*3 7 C 0 km/h
230 12-11-2009 21:54:01 7.1 C 7.25 g/m*3 7.1 C 0 km/h
231 12-11-2009 22:07:01 7.4 C 7.4 g/m*3 7.4 C 0 km/h
232 12-11-2009 22:19:01 7.5 C 7.52 g/m*3 7.5 C 0 km/h
233 12-11-2009 22:31:01 7.2 C 7.3 g/m*3 7.2 C 0 km/h
234 12-11-2009 22:43:01 7.3 C 7.35 g/m*3 7.3 C 0 km/h
235 12-11-2009 22:55:01 7.6 C 7.49 g/m*3 7.6 C 0 km/h
236 12-11-2009 23:07:01 8.1 C 7.66 g/m*3 8.1 C 0 km/h
237 12-11-2009 23:19:01 7.9 C 7.47 g/m*3 7.9 C 0 km/h
238 12-11-2009 23:31:02 8 C 7.36 g/m*3 8 C 0 km/h
239 12-11-2009 23:43:02 8.3 C 7.5 g/m*3 8.3 C 0 km/h
240 12-11-2009 23:55:02 8.6 C 7.48 g/m*3 8.6 C 0 km/h

Legende:
   Min
   Max


Maximal/Minimal-Werte vom 14.04.2020 - 16.05.2020

Sensor Min Max Avg
Temp
(Aussen-T/F)
-0.1 °C
15-04-2020  06:55:00
26.2 °C
17-04-2020  18:05:00
11.98 °C

Die Daten stammen von einer Davis Vantage Pro 2 Wetter-Station und werden unter Linux mit der Software wview2wettercgi und aufbereitet. Alle Angaben erfolgen ohne Gewähr für ihre Vollständigkeit oder Richtigkeit.
Kontakt: Rainer Krienke krienke@uni-koblenz.de . Meine Webseiten an der Uni Koblenz oder privat.
Version: $Revision: 0.78 $